TimeMST,TemperatureF,Dew PointF,Humidity,Sea Level PressureIn,VisibilityMPH,Wind Direction,Wind SpeedMPH,Gust SpeedMPH,PrecipitationIn,Events,Conditions,WindDirDegrees,DateUTC
12:53 AM,12.0,7.0,80,30.76,10.0,Calm,Calm,-,N/A,,Clear,0,2012-01-02 07:53:00
1:53 AM,12.0,5.0,73,30.76,10.0,Calm,Calm,-,N/A,,Clear,0,2012-01-02 08:53:00
2:53 AM,8.1,3.0,80,30.76,10.0,NW,3.5,-,N/A,,Clear,320,2012-01-02 09:53:00
3:53 AM,8.1,3.0,80,30.76,10.0,Calm,Calm,-,N/A,,Clear,0,2012-01-02 10:53:00
4:53 AM,6.1,1.9,83,30.74,10.0,WNW,5.8,-,N/A,,Clear,300,2012-01-02 11:53:00
5:53 AM,8.1,3.9,83,30.73,10.0,NNW,6.9,-,N/A,,Clear,330,2012-01-02 12:53:00
6:53 AM,9.0,5.0,84,30.71,10.0,NNW,5.8,-,N/A,,Clear,330,2012-01-02 13:53:00
7:53 AM,10.9,5.0,77,30.72,10.0,NW,3.5,-,N/A,,Clear,310,2012-01-02 14:53:00
8:53 AM,18.0,12.9,81,30.71,10.0,WNW,4.6,-,N/A,,Clear,290,2012-01-02 15:53:00
9:53 AM,24.1,16.0,71,30.69,10.0,WNW,3.5,-,N/A,,Clear,300,2012-01-02 16:53:00
10:53 AM,30.9,16.0,54,30.63,10.0,Calm,Calm,-,N/A,,Clear,0,2012-01-02 17:53:00
11:53 AM,36.0,21.0,55,30.56,10.0,East,3.5,-,N/A,,Clear,100,2012-01-02 18:53:00
12:53 PM,41.0,21.0,45,30.50,10.0,SE,4.6,-,N/A,,Clear,130,2012-01-02 19:53:00
1:53 PM,44.1,23.0,43,30.45,10.0,SE,6.9,-,N/A,,Clear,140,2012-01-02 20:53:00
2:53 PM,46.0,24.1,42,30.44,10.0,ESE,8.1,-,N/A,,Clear,110,2012-01-02 21:53:00
3:53 PM,42.1,26.1,53,30.44,10.0,ESE,5.8,-,N/A,,Clear,120,2012-01-02 22:53:00
4:53 PM,35.6,23.0,60,30.29,10.0,ESE,4.6,-,N/A,,Clear,110,2012-01-02 23:53:00
5:53 PM,30.0,21.0,69,30.43,10.0,East,5.8,-,N/A,,Clear,100,2012-01-03 00:53:00
6:53 PM,28.9,21.0,72,30.41,10.0,East,6.9,-,N/A,,Clear,80,2012-01-03 01:53:00
7:53 PM,28.0,21.0,75,30.39,10.0,ENE,4.6,-,N/A,,Clear,70,2012-01-03 02:53:00
8:53 PM,27.0,19.9,75,30.35,10.0,ENE,4.6,-,N/A,,Clear,70,2012-01-03 03:53:00
9:53 PM,26.1,19.9,78,30.32,10.0,ENE,4.6,-,N/A,,Clear,60,2012-01-03 04:53:00
10:53 PM,24.1,18.0,77,30.27,10.0,East,4.6,-,N/A,,Clear,80,2012-01-03 05:53:00
11:53 PM,23.0,18.0,81,30.24,10.0,ENE,4.6,-,N/A,,Clear,60,2012-01-03 06:53:00